軌道要素
Epoch 2018 Feb. 11.0 TT = JDT 2458160.5
T 2018 Feb. 19.02459 TT Rudenko
q 3.7297567 (2000.0) P Q
z -0.0000472 Peri. 89.59284 -0.52093835 -0.50153087
Node 299.85563 -0.59864741 +0.79148201
e 1.0001759 Incl. 127.21086 +0.60847721 +0.34931793
From 3892 observations 2015 June 15-2020 Mar. 20, mean residual 1".0.
Nongravitational parameters A1 = +7.99, A2 = -2.0505.
|